"Pseudo-MPEC" for velh03

Created 2020 Nov 30 16:07:10 UT using Find_Orb

Click here for an explanation of pseudo-MPECs

 
 Astrometry: 
     velh03  KC2020 11 10)It_$NNuy!m4)uAstrometry[1redacted;#clicks`ZLtUr?,.O221
     velh03  KC2020 11 10i1IhereNiRVd+XX-Fa)'M`CF4I@-%mLe!!Tg%]V19AKS$q:aSAGS221
     velh03  KC2020 11 10?mBhgforOmZ!26VAW5$3q.=CaunV\Gw]U*w_qL,,'explanation221

Station data:
(221) IAS Observatory, Hakos  (S23.241147 E16.363100)  Namibia.

Orbital elements:  velh03
   Perihelion 2021 Jan 31.796044 +/- 184 TT = 19:06:18 (JD 2459246.296044)
Epoch 2020 Nov 11.0 TT = JDT 2459164.5   Earth MOID: 0.0435   AutoNEOCP
M 295.93869239 +/- 90               (J2000 ecliptic)
n   0.78318344 +/- 0.381            Peri.  255.19552 +/- 70
a   1.16562910 +/- 0.378            Node   229.17484 +/- 20
e   0.1279758 +/- 0.228             Incl.    1.75025 +/- 47
P   1.26/459.65d           H 22.3   G  0.15   U 12.1  SR
q 1.01645678 +/- 0.655    Q 1.31480142 +/- 11.7
From 3 observations 2020 Nov. 10 (41.9 min); mean residual 0".90
Residuals in arcseconds: 
201110 221  .63+  .74+    201110 221  1.2-  1.4-    201110 221  .54+  .64+    

Ephemerides (geocentric):
Date (UTC) HH   RA              Dec         delta   r     elong  mag " sig PA
---- -- -- --  -------------   -----------  ------ ------ -----  --- ---- ---
2020 11 30 16  01 23 53.206   +05 00 30.20  .13144 1.0793 132.5 19.7  31d 168
2020 11 30 17  01 23 52.900   +04 59 54.48  .13145 1.0792 132.5 19.7  31d 168
2020 11 30 18  01 23 52.603   +04 59 18.82  .13146 1.0791 132.4 19.7  31d 168
2020 11 30 19  01 23 52.315   +04 58 43.23  .13147 1.0791 132.4 19.7  31d 168
2020 11 30 20  01 23 52.035   +04 58 07.70  .13147 1.0790 132.3 19.7  31d 168
2020 11 30 21  01 23 51.764   +04 57 32.23  .13148 1.0789 132.3 19.7  31d 168
2020 11 30 22  01 23 51.502   +04 56 56.83  .13149 1.0788 132.2 19.7  31d 168
2020 11 30 23  01 23 51.248   +04 56 21.50  .13149 1.0788 132.2 19.7  31d 168
2020 12 01 00  01 23 51.002   +04 55 46.22  .13150 1.0787 132.2 19.7  31d 169
2020 12 01 01  01 23 50.766   +04 55 11.01  .13151 1.0786 132.1 19.7  31d 169
2020 12 01 02  01 23 50.538   +04 54 35.87  .13152 1.0785 132.1 19.7  31d 169
2020 12 01 03  01 23 50.318   +04 54 00.79  .13152 1.0785 132.0 19.7  31d 169
2020 12 01 04  01 23 50.107   +04 53 25.77  .13153 1.0784 132.0 19.7  31d 169
2020 12 01 05  01 23 49.905   +04 52 50.82  .13154 1.0783 131.9 19.7  31d 169
2020 12 01 06  01 23 49.712   +04 52 15.94  .13154 1.0782 131.9 19.7  31d 169
2020 12 01 07  01 23 49.527   +04 51 41.11  .13155 1.0782 131.8 19.7  31d 169
2020 12 01 08  01 23 49.350   +04 51 06.35  .13156 1.0781 131.8 19.7  31d 169
2020 12 01 09  01 23 49.182   +04 50 31.66  .13157 1.0780 131.7 19.7  31d 169
2020 12 01 10  01 23 49.023   +04 49 57.03  .13157 1.0779 131.7 19.7  31d 169
2020 12 01 11  01 23 48.873   +04 49 22.46  .13158 1.0779 131.6 19.7  31d 169
2020 12 01 12  01 23 48.731   +04 48 47.96  .13159 1.0778 131.6 19.7  31d 169
2020 12 01 13  01 23 48.597   +04 48 13.52  .13160 1.0777 131.5 19.7  31d 169
2020 12 01 14  01 23 48.472   +04 47 39.14  .13161 1.0776 131.5 19.7  31d 169
2020 12 01 15  01 23 48.356   +04 47 04.84  .13161 1.0776 131.4 19.7  31d 169
2020 12 01 16  01 23 48.249   +04 46 30.59  .13162 1.0775 131.4 19.7  31d 169
2020 12 01 17  01 23 48.150   +04 45 56.41  .13163 1.0774 131.4 19.7  31d 169
2020 12 01 18  01 23 48.059   +04 45 22.29  .13164 1.0774 131.3 19.7  31d 169
2020 12 01 19  01 23 47.977   +04 44 48.24  .13164 1.0773 131.3 19.7  31d 169
2020 12 01 20  01 23 47.904   +04 44 14.25  .13165 1.0772 131.2 19.7  31d 169
2020 12 01 21  01 23 47.839   +04 43 40.33  .13166 1.0771 131.2 19.7  31d 169
2020 12 01 22  01 23 47.783   +04 43 06.47  .13167 1.0771 131.1 19.7  31d 169
2020 12 01 23  01 23 47.736   +04 42 32.67  .13168 1.0770 131.1 19.7  31d 169
2020 12 02 00  01 23 47.697   +04 41 58.94  .13168 1.0769 131.0 19.7  31d 169
2020 12 02 01  01 23 47.666   +04 41 25.27  .13169 1.0768 131.0 19.7  31d 169
2020 12 02 02  01 23 47.644   +04 40 51.67  .13170 1.0768 130.9 19.7  31d 169
2020 12 02 03  01 23 47.631   +04 40 18.13  .13171 1.0767 130.9 19.7  31d 169
2020 12 02 04  01 23 47.626   +04 39 44.66  .13172 1.0766 130.8 19.7  31d 169
2020 12 02 05  01 23 47.630   +04 39 11.25  .13172 1.0765 130.8 19.7  31d 169
2020 12 02 06  01 23 47.642   +04 38 37.91  .13173 1.0765 130.8 19.7  31d 169
2020 12 02 07  01 23 47.663   +04 38 04.62  .13174 1.0764 130.7 19.7  31d 169
2020 12 02 08  01 23 47.693   +04 37 31.41  .13175 1.0763 130.7 19.7  31d 169
2020 12 02 09  01 23 47.731   +04 36 58.26  .13176 1.0762 130.6 19.7  31d 169
2020 12 02 10  01 23 47.778   +04 36 25.17  .13176 1.0762 130.6 19.7  31d 169
2020 12 02 11  01 23 47.833   +04 35 52.15  .13177 1.0761 130.5 19.7  31d 169
2020 12 02 12  01 23 47.896   +04 35 19.19  .13178 1.0760 130.5 19.7  31d 169
2020 12 02 13  01 23 47.969   +04 34 46.29  .13179 1.0759 130.4 19.7  31d 169
2020 12 02 14  01 23 48.049   +04 34 13.46  .13180 1.0759 130.4 19.7  31d 169
2020 12 02 15  01 23 48.139   +04 33 40.70  .13181 1.0758 130.3 19.7  31d 169